Date,TemperatureHighF,TemperatureAvgF,TemperatureLowF,DewpointHighF,DewpointAvgF,DewpointLowF,HumidityHigh,HumidityAvg,HumidityLow,PressureMaxIn,PressureMinIn,WindSpeedMaxMPH,WindSpeedAvgMPH,GustSpeedMaxMPH,PrecipitationSumIn
2013-1-1,23.0,14.5,7.0,9.4,4.6,-0.8,78,65,45,30.29,30.10,11,1,11,0.00
2013-1-2,35.8,23.7,10.4,28.2,17.6,5.7,83,77,67,30.16,30.00,10,0,10,0.00
2013-1-3,31.0,24.2,18.6,25.9,17.4,11.5,83,75,60,30.36,30.16,17,2,17,0.00
2013-1-4,39.1,24.5,16.1,21.0,15.4,11.3,84,69,42,30.28,30.08,13,1,13,0.00
2013-1-5,35.5,24.7,17.3,27.1,17.7,13.3,86,75,58,30.14,29.93,19,2,19,0.00
2013-1-6,39.3,26.2,14.9,23.2,17.5,10.3,82,70,48,30.29,30.07,17,1,17,0.00
2013-1-7,42.9,32.9,27.2,27.1,23.8,20.4,86,70,51,30.07,29.87,12,2,17,0.00
2013-1-8,44.6,33.9,23.5,30.4,26.4,19.9,89,75,54,30.04,29.76,14,2,16,0.00
2013-1-9,46.1,35.4,26.1,32.0,28.0,22.4,88,75,53,30.36,30.04,13,0,13,0.00
2013-1-10,39.8,36.1,31.0,36.7,30.6,23.5,98,81,54,30.26,29.61,15,1,15,0.07
2013-1-11,54.5,42.7,28.5,48.4,39.5,18.0,100,89,68,29.67,29.28,19,3,19,0.00
2013-1-12,28.2,19.8,11.6,16.6,6.6,1.1,66,56,45,30.11,29.67,21,4,21,0.00
2013-1-13,21.8,14.1,7.9,4.5,1.4,-3.3,69,57,34,30.32,30.09,14,2,14,0.00
2013-1-14,30.4,18.9,8.4,11.4,6.4,1.7,78,59,35,30.44,30.31,11,0,11,0.00
2013-1-15,37.0,25.0,15.2,15.8,11.3,7.2,74,57,32,30.31,29.99,14,2,14,0.00
2013-1-16,51.3,36.8,23.2,31.4,24.5,15.3,77,62,44,30.14,29.85,17,2,17,0.00
2013-1-17,35.5,29.5,23.8,29.2,25.0,19.7,91,83,69,30.40,30.14,13,1,13,0.00
2013-1-18,54.5,39.1,26.7,30.3,27.8,24.2,92,67,37,30.23,29.80,21,3,21,0.00
2013-1-19,53.3,38.4,22.4,29.4,24.6,8.8,86,61,34,30.26,29.77,22,4,22,0.00
2013-1-20,22.4,17.8,14.6,9.7,6.3,1.3,71,61,41,30.39,30.23,16,2,16,0.00
2013-1-21,15.9,10.9,5.4,7.6,-5.7,-11.7,70,47,35,30.45,30.34,18,2,18,0.00
2013-1-22,21.0,14.0,10.0,9.0,5.0,-3.8,79,67,48,30.38,30.23,5,1,6,0.01
2013-1-23,30.0,19.2,10.4,16.1,8.4,-4.2,74,63,50,30.48,30.13,18,4,18,0.00
2013-1-24,19.9,11.1,2.4,3.9,-3.4,-9.6,61,51,43,30.54,30.16,14,2,14,0.00
2013-1-25,47.9,29.7,15.7,23.9,15.0,3.4,71,55,36,30.17,30.06,12,1,12,0.00
2013-1-26,46.4,30.1,16.4,24.1,17.4,7.4,75,60,38,30.21,29.94,13,2,13,0.00
2013-1-27,42.1,38.5,34.0,41.6,35.9,21.7,99,91,53,29.94,29.59,15,2,15,0.13
2013-1-28,46.5,39.5,33.4,46.5,39.3,33.0,100,100,99,29.80,29.45,7,1,7,0.00
2013-1-29,41.2,34.4,30.9,41.2,32.1,28.4,100,91,81,29.60,29.44,22,5,22,0.04
2013-1-30,30.7,22.7,15.7,28.7,17.2,7.4,95,80,62,29.89,29.54,25,5,25,0.14
2013-1-31,15.6,7.8,0.9,7.3,-3.9,-10.2,72,58,45,30.43,29.89,22,3,22,0.00